Location: Amberg
(48.0613°N, 10.6820°E)
Time: 07:35:38
(UTC+00:00)

Cosmos 1140 Rocket - Pass Details

Date: 18 November 2025
Orbit: 741 x 761 km, 74.1° (Epoch: 06 December)

Event Time Altitude Azimuth Distance (km) Brightness Sun altitude
Rises 16:52:11 0° 218° (SW) 3,198 7.6 -12.6°
Reaches altitude 10° 16:54:37 10° 223° (SW) 2,274 6.9 -13.0°
Maximum altitude 16:59:36 49° 298° (WNW) 972 4.4 -13.8°
Drops below altitude 10° 17:04:36 10° 14° (NNE) 2,275 5.7 -14.6°
Enters shadow 17:06:30 - 19° (NNE) 2,992 6.3 -14.9°
